Time,TemperatureF,DewpointF,PressureIn,WindDirection,WindDirectionDegrees,WindSpeedMPH,WindSpeedGustMPH,Humidity,HourlyPrecipIn,Conditions,Clouds,dailyrainin,SoftwareType,DateUTC
2013-11-23 00:00:00,53.6,52.8,29.93,SW,236,7.0,12.0,97,0.00,,---,0.08,VWS V14.01,2013-11-23 05:00:00,
2013-11-23 00:01:00,53.6,52.8,29.93,WSW,241,5.0,12.0,97,0.00,,---,0.08,VWS V14.01,2013-11-23 05:01:00,
2013-11-23 00:02:00,53.6,52.8,29.92,WSW,242,4.0,7.0,97,0.00,,---,0.00,VWS V14.01,2013-11-23 05:02:00,
2013-11-23 00:07:00,53.6,53.0,29.92,West,276,5.0,9.0,98,0.00,,---,0.00,VWS V14.01,2013-11-23 05:07:00,
2013-11-23 00:12:00,53.6,53.0,29.93,West,259,6.0,9.0,98,0.00,,---,0.00,VWS V14.01,2013-11-23 05:12:00,
2013-11-23 00:17:00,53.4,52.8,29.93,West,269,6.0,9.0,98,0.00,,---,0.00,VWS V14.01,2013-11-23 05:17:00,
2013-11-23 00:22:00,53.4,52.8,29.93,West,262,4.0,10.0,98,0.00,,---,0.00,VWS V14.01,2013-11-23 05:22:00,
2013-11-23 00:27:00,53.4,52.8,29.93,WNW,282,6.0,10.0,98,0.00,,---,0.00,VWS V14.01,2013-11-23 05:27:00,
2013-11-23 00:32:00,53.3,52.8,29.93,West,280,8.0,9.0,98,0.00,,---,0.00,VWS V14.01,2013-11-23 05:32:00,
2013-11-23 00:37:00,53.2,52.7,29.93,WNW,301,5.0,9.0,98,0.00,,---,0.00,VWS V14.01,2013-11-23 05:37:00,
2013-11-23 00:42:00,53.2,52.7,29.93,West,266,9.0,12.0,98,0.00,,---,0.00,VWS V14.01,2013-11-23 05:42:00,
2013-11-23 00:47:00,53.3,52.8,29.93,West,275,7.0,12.0,98,0.00,,---,0.00,VWS V14.01,2013-11-23 05:47:00,
2013-11-23 00:52:00,53.4,52.8,29.93,NW,315,9.0,12.0,98,0.00,,---,0.00,VWS V14.01,2013-11-23 05:52:00,
2013-11-23 00:57:00,53.5,53.0,29.93,SW,228,8.0,13.0,98,0.00,,---,0.00,VWS V14.01,2013-11-23 05:57:00,
2013-11-23 01:02:00,53.4,52.6,29.93,West,278,13.0,13.0,97,0.00,,---,0.00,VWS V14.01,2013-11-23 06:02:00,
2013-11-23 01:07:00,53.4,52.6,29.93,NW,321,7.0,15.0,97,0.00,,---,0.00,VWS V14.01,2013-11-23 06:07:00,
2013-11-23 01:12:00,53.3,52.2,29.93,WNW,295,8.0,15.0,96,0.00,,---,0.00,VWS V14.01,2013-11-23 06:12:00,
2013-11-23 01:17:00,53.3,52.2,29.94,WNW,283,12.0,15.0,96,0.00,,---,0.00,VWS V14.01,2013-11-23 06:17:00,
2013-11-23 01:22:00,53.2,52.1,29.94,South,172,6.0,15.0,96,0.00,,---,0.00,VWS V14.01,2013-11-23 06:22:00,
2013-11-23 01:27:00,53.2,51.8,29.94,WSW,254,14.0,16.0,95,0.00,,---,0.00,VWS V14.01,2013-11-23 06:27:00,
2013-11-23 01:32:00,53.2,51.5,29.94,NNE,15,6.0,15.0,94,0.00,,---,0.00,VWS V14.01,2013-11-23 06:32:00,
2013-11-23 01:37:00,53.2,51.5,29.94,NW,317,12.0,15.0,94,0.00,,---,0.00,VWS V14.01,2013-11-23 06:37:00,
2013-11-23 01:42:00,53.0,51.3,29.94,NW,305,8.0,16.0,94,0.00,,---,0.00,VWS V14.01,2013-11-23 06:42:00,
2013-11-23 01:47:00,52.9,51.2,29.94,East,95,7.0,17.0,94,0.00,,---,0.00,VWS V14.01,2013-11-23 06:47:00,
2013-11-23 01:52:00,52.8,50.8,29.94,NNW,335,9.0,17.0,93,0.00,,---,0.00,VWS V14.01,2013-11-23 06:52:00,
2013-11-23 01:57:00,52.7,50.7,29.95,WNW,285,6.0,17.0,93,0.00,,---,0.00,VWS V14.01,2013-11-23 06:57:00,
2013-11-23 02:02:00,52.6,50.3,29.95,WNW,298,9.0,17.0,92,0.00,,---,0.00,VWS V14.01,2013-11-23 07:02:00,
2013-11-23 02:07:00,52.5,50.2,29.95,WNW,283,12.0,17.0,92,0.00,,---,0.00,VWS V14.01,2013-11-23 07:07:00,
2013-11-23 02:12:00,52.3,50.0,29.95,North,354,8.0,17.0,92,0.00,,---,0.00,VWS V14.01,2013-11-23 07:12:00,
2013-11-23 02:17:00,52.2,49.7,29.95,West,276,7.0,17.0,91,0.00,,---,0.00,VWS V14.01,2013-11-23 07:17:00,
2013-11-23 02:22:00,52.1,49.6,29.95,NW,304,6.0,17.0,91,0.00,,---,0.00,VWS V14.01,2013-11-23 07:22:00,
2013-11-23 02:27:00,51.8,49.3,29.95,West,280,9.0,17.0,91,0.00,,---,0.00,VWS V14.01,2013-11-23 07:27:00,
2013-11-23 02:32:00,51.7,48.9,29.95,WSW,255,7.0,14.0,90,0.00,,---,0.00,VWS V14.01,2013-11-23 07:32:00,
2013-11-23 02:37:00,51.7,48.9,29.95,WNW,290,10.0,14.0,90,0.00,,---,0.00,VWS V14.01,2013-11-23 07:37:00,
2013-11-23 02:42:00,51.7,48.6,29.95,NNW,330,5.0,14.0,89,0.00,,---,0.00,VWS V14.01,2013-11-23 07:42:00,
2013-11-23 02:47:00,51.5,48.4,29.95,West,271,7.0,14.0,89,0.00,,---,0.00,VWS V14.01,2013-11-23 07:47:00,
2013-11-23 02:52:00,51.4,48.3,29.95,WNW,285,8.0,14.0,89,0.00,,---,0.00,VWS V14.01,2013-11-23 07:52:00,
2013-11-23 02:57:00,51.3,47.9,29.95,NNW,340,7.0,14.0,88,0.00,,---,0.00,VWS V14.01,2013-11-23 07:57:00,
2013-11-23 03:02:00,51.3,47.9,29.95,NNE,15,15.0,15.0,88,0.00,,---,0.00,VWS V14.01,2013-11-23 08:02:00,
2013-11-23 03:07:00,51.3,47.6,29.95,NNW,339,7.0,16.0,87,0.00,,---,0.00,VWS V14.01,2013-11-23 08:07:00,
2013-11-23 03:12:00,51.2,47.5,29.95,NNW,333,10.0,16.0,87,0.00,,---,0.00,VWS V14.01,2013-11-23 08:12:00,
2013-11-23 03:17:00,51.0,47.3,29.95,NNW,342,9.0,16.0,87,0.00,,---,0.00,VWS V14.01,2013-11-23 08:17:00,
2013-11-23 03:22:00,50.8,47.1,29.95,NW,326,8.0,16.0,87,0.00,,---,0.00,VWS V14.01,2013-11-23 08:22:00,
2013-11-23 03:27:00,50.7,47.3,29.96,NW,310,8.0,16.0,88,0.00,,---,0.00,VWS V14.01,2013-11-23 08:27:00,
2013-11-23 03:32:00,50.6,47.2,29.95,WNW,283,6.0,9.0,88,0.00,,---,0.00,VWS V14.01,2013-11-23 08:32:00,
2013-11-23 03:37:00,50.3,46.9,29.95,NW,308,7.0,10.0,88,0.00,,---,0.00,VWS V14.01,2013-11-23 08:37:00,
2013-11-23 03:42:00,50.2,46.8,29.95,WNW,286,8.0,12.0,88,0.00,,---,0.00,VWS V14.01,2013-11-23 08:42:00,
2013-11-23 03:47:00,50.2,46.8,29.96,WNW,300,6.0,12.0,88,0.00,,---,0.00,VWS V14.01,2013-11-23 08:47:00,
2013-11-23 03:52:00,50.1,46.7,29.95,WNW,293,10.0,12.0,88,0.00,,---,0.00,VWS V14.01,2013-11-23 08:52:00,
2013-11-23 03:57:00,50.2,46.5,29.95,West,266,4.0,14.0,87,0.00,,---,0.00,VWS V14.01,2013-11-23 08:57:00,
2013-11-23 04:03:00,50.3,46.6,29.95,NW,313,6.0,11.0,87,0.00,,---,0.00,VWS V14.01,2013-11-23 09:03:00,
2013-11-23 04:08:00,50.1,46.4,29.95,West,271,6.0,11.0,87,0.00,,---,0.00,VWS V14.01,2013-11-23 09:08:00,
2013-11-23 04:13:00,50.1,46.1,29.95,WNW,297,9.0,17.0,86,0.00,,---,0.00,VWS V14.01,2013-11-23 09:13:00,
2013-11-23 04:18:00,50.2,45.6,29.95,East,91,11.0,20.0,84,0.00,,---,0.00,VWS V14.01,2013-11-23 09:18:00,
2013-11-23 04:23:00,50.2,44.6,29.96,NNW,347,13.0,22.0,81,0.00,,---,0.00,VWS V14.01,2013-11-23 09:23:00,
2013-11-23 04:28:00,50.1,43.8,29.96,SW,231,18.0,23.0,79,0.00,,---,0.00,VWS V14.01,2013-11-23 09:28:00,
2013-11-23 04:33:00,50.0,43.4,29.96,ENE,73,14.0,19.0,78,0.00,,---,0.00,VWS V14.01,2013-11-23 09:33:00,
2013-11-23 04:38:00,49.9,43.0,29.96,NW,324,6.0,30.0,77,0.00,,---,0.00,VWS V14.01,2013-11-23 09:38:00,
2013-11-23 04:43:00,49.7,42.5,29.97,SSW,205,15.0,30.0,76,0.00,,---,0.00,VWS V14.01,2013-11-23 09:43:00,
2013-11-23 04:48:00,49.5,42.3,29.97,NW,312,16.0,30.0,76,0.00,,---,0.00,VWS V14.01,2013-11-23 09:48:00,
2013-11-23 04:53:00,49.4,42.2,29.97,NW,326,3.0,30.0,76,0.00,,---,0.00,VWS V14.01,2013-11-23 09:53:00,
2013-11-23 04:58:00,49.2,42.0,29.98,West,279,9.0,30.0,76,0.00,,---,0.00,VWS V14.01,2013-11-23 09:58:00,
2013-11-23 05:03:00,48.9,42.0,29.98,WNW,285,14.0,15.0,77,0.00,,---,0.00,VWS V14.01,2013-11-23 10:03:00,
2013-11-23 05:08:00,48.7,41.8,29.98,NNW,327,10.0,15.0,77,0.00,,---,0.00,VWS V14.01,2013-11-23 10:08:00,
2013-11-23 05:13:00,48.4,41.5,29.99,East,79,3.0,15.0,77,0.00,,---,0.00,VWS V14.01,2013-11-23 10:13:00,
2013-11-23 05:18:00,48.0,40.8,29.99,SSW,210,15.0,15.0,76,0.00,,---,0.00,VWS V14.01,2013-11-23 10:18:00,
2013-11-23 05:23:00,47.4,39.9,29.99,NW,316,9.0,19.0,75,0.00,,---,0.00,VWS V14.01,2013-11-23 10:23:00,
2013-11-23 05:28:00,47.0,39.2,29.99,North,8,16.0,19.0,74,0.00,,---,0.00,VWS V14.01,2013-11-23 10:28:00,
2013-11-23 05:33:00,46.9,37.6,29.99,NW,326,14.0,19.0,70,0.00,,---,0.00,VWS V14.01,2013-11-23 10:33:00,
2013-11-23 05:38:00,46.7,36.3,30.00,West,266,16.0,20.0,67,0.00,,---,0.00,VWS V14.01,2013-11-23 10:38:00,
2013-11-23 05:43:00,46.7,34.4,30.00,NW,325,8.0,27.0,62,0.00,,---,0.00,VWS V14.01,2013-11-23 10:43:00,
2013-11-23 05:48:00,46.5,34.6,30.00,East,91,24.0,27.0,63,0.00,,---,0.00,VWS V14.01,2013-11-23 10:48:00,
2013-11-23 05:53:00,46.2,34.3,30.01,WNW,297,12.0,27.0,63,0.00,,---,0.00,VWS V14.01,2013-11-23 10:53:00,
2013-11-23 05:58:00,46.1,34.6,30.01,ESE,107,10.0,27.0,64,0.00,,---,0.00,VWS V14.01,2013-11-23 10:58:00,
2013-11-23 06:03:00,45.7,33.4,30.01,West,279,8.0,22.0,62,0.00,,---,0.00,VWS V14.01,2013-11-23 11:03:00,
2013-11-23 06:08:00,45.5,33.7,30.01,WNW,282,6.0,22.0,63,0.00,,---,0.00,VWS V14.01,2013-11-23 11:08:00,
2013-11-23 06:13:00,45.2,33.8,30.01,West,281,5.0,22.0,64,0.00,,---,0.00,VWS V14.01,2013-11-23 11:13:00,
2013-11-23 06:18:00,44.8,33.8,30.01,SSW,213,4.0,22.0,65,0.00,,---,0.00,VWS V14.01,2013-11-23 11:18:00,
2013-11-23 06:23:00,44.6,34.0,30.01,NW,317,3.0,22.0,66,0.00,,---,0.00,VWS V14.01,2013-11-23 11:23:00,
2013-11-23 06:28:00,44.4,33.8,30.01,ENE,76,6.0,22.0,66,0.00,,---,0.00,VWS V14.01,2013-11-23 11:28:00,
2013-11-23 06:33:00,44.2,34.0,30.01,WNW,293,11.0,11.0,67,0.00,,---,0.00,VWS V14.01,2013-11-23 11:33:00,
2013-11-23 06:38:00,44.0,34.1,30.02,WNW,286,8.0,12.0,68,0.00,,---,0.00,VWS V14.01,2013-11-23 11:38:00,
2013-11-23 06:43:00,43.8,34.3,30.02,WSW,258,3.0,13.0,69,0.00,,---,0.00,VWS V14.01,2013-11-23 11:43:00,
2013-11-23 06:48:00,43.7,34.6,30.02,SSW,205,3.0,13.0,70,0.00,,---,0.00,VWS V14.01,2013-11-23 11:48:00,
2013-11-23 06:53:00,43.5,34.7,30.03,NE,51,9.0,13.0,71,0.00,,---,0.00,VWS V14.01,2013-11-23 11:53:00,
2013-11-23 06:58:00,43.4,34.6,30.03,WNW,289,9.0,13.0,71,0.00,,---,0.00,VWS V14.01,2013-11-23 11:58:00,
2013-11-23 07:03:00,43.4,34.6,30.03,WNW,286,13.0,17.0,71,0.00,,---,0.00,VWS V14.01,2013-11-23 12:03:00,
2013-11-23 07:08:00,43.6,34.5,30.03,WNW,299,9.0,17.0,70,0.00,,---,0.00,VWS V14.01,2013-11-23 12:08:00,
2013-11-23 07:13:00,43.7,34.6,30.04,West,280,11.0,17.0,70,0.00,,---,0.00,VWS V14.01,2013-11-23 12:13:00,
2013-11-23 07:18:00,43.8,33.9,30.04,WNW,302,12.0,19.0,68,0.00,,---,0.00,VWS V14.01,2013-11-23 12:18:00,
2013-11-23 07:23:00,43.9,34.0,30.05,West,266,14.0,19.0,68,0.00,,---,0.00,VWS V14.01,2013-11-23 12:23:00,
2013-11-23 07:28:00,43.9,33.3,30.05,WNW,292,13.0,19.0,66,0.00,,---,0.00,VWS V14.01,2013-11-23 12:28:00,
2013-11-23 07:33:00,43.9,33.3,30.05,West,276,9.0,16.0,66,0.00,,---,0.00,VWS V14.01,2013-11-23 12:33:00,
2013-11-23 07:38:00,43.8,32.8,30.05,NW,305,4.0,17.0,65,0.00,,---,0.00,VWS V14.01,2013-11-23 12:38:00,
2013-11-23 07:43:00,43.7,33.1,30.05,WNW,302,14.0,20.0,66,0.00,,---,0.00,VWS V14.01,2013-11-23 12:43:00,
2013-11-23 07:48:00,43.7,33.1,30.05,WNW,299,5.0,20.0,66,0.00,,---,0.00,VWS V14.01,2013-11-23 12:48:00,
2013-11-23 07:53:00,43.5,31.8,30.05,NW,321,13.0,21.0,63,0.00,,---,0.00,VWS V14.01,2013-11-23 12:53:00,
2013-11-23 07:58:00,43.3,31.6,30.05,NNW,333,14.0,21.0,63,0.00,,---,0.00,VWS V14.01,2013-11-23 12:58:00,
2013-11-23 08:03:00,43.2,31.1,30.05,North,352,9.0,20.0,62,0.00,,---,0.00,VWS V14.01,2013-11-23 13:03:00,
2013-11-23 08:08:00,43.2,30.7,30.05,North,355,8.0,20.0,61,0.00,,---,0.00,VWS V14.01,2013-11-23 13:08:00,
2013-11-23 08:13:00,43.2,31.1,30.05,NNE,13,8.0,20.0,62,0.00,,---,0.00,VWS V14.01,2013-11-23 13:13:00,
2013-11-23 08:18:00,43.2,31.1,30.05,NW,306,8.0,21.0,62,0.00,,---,0.00,VWS V14.01,2013-11-23 13:18:00,
2013-11-23 08:23:00,43.2,30.7,30.05,WSW,255,11.0,21.0,61,0.00,,---,0.00,VWS V14.01,2013-11-23 13:23:00,
2013-11-23 08:28:00,43.3,30.4,30.04,WNW,298,7.0,21.0,60,0.00,,---,0.00,VWS V14.01,2013-11-23 13:28:00,
2013-11-23 08:33:00,43.2,30.3,30.04,WSW,258,10.0,14.0,60,0.00,,---,0.00,VWS V14.01,2013-11-23 13:33:00,
2013-11-23 08:38:00,43.0,29.7,30.04,West,270,7.0,21.0,59,0.00,,---,0.00,VWS V14.01,2013-11-23 13:38:00,
2013-11-23 08:43:00,43.3,30.4,30.04,WNW,297,5.0,21.0,60,0.00,,---,0.00,VWS V14.01,2013-11-23 13:43:00,
2013-11-23 08:48:00,43.1,29.8,30.04,WSW,248,7.0,22.0,59,0.00,,---,0.00,VWS V14.01,2013-11-23 13:48:00,
2013-11-23 08:53:00,43.1,29.3,30.04,NW,315,14.0,25.0,58,0.00,,---,0.00,VWS V14.01,2013-11-23 13:53:00,
2013-11-23 08:58:00,42.9,29.2,30.04,NW,320,16.0,25.0,58,0.00,,---,0.00,VWS V14.01,2013-11-23 13:58:00,
2013-11-23 09:03:00,43.2,29.4,30.04,NW,314,11.0,20.0,58,0.00,,---,0.00,VWS V14.01,2013-11-23 14:03:00,
2013-11-23 09:08:00,43.5,30.1,30.04,NNW,340,6.0,20.0,59,0.00,,---,0.00,VWS V14.01,2013-11-23 14:08:00,
2013-11-23 09:13:00,43.5,29.3,30.04,SSW,198,9.0,20.0,57,0.00,,---,0.00,VWS V14.01,2013-11-23 14:13:00,
2013-11-23 09:18:00,43.7,29.9,30.05,ENE,68,6.0,20.0,58,0.00,,---,0.00,VWS V14.01,2013-11-23 14:18:00,
2013-11-23 09:23:00,43.8,29.6,30.04,NNW,330,7.0,20.0,57,0.00,,---,0.00,VWS V14.01,2013-11-23 14:23:00,
2013-11-23 09:28:00,44.1,29.9,30.04,NNW,328,4.0,20.0,57,0.00,,---,0.00,VWS V14.01,2013-11-23 14:28:00,
2013-11-23 09:33:00,44.3,30.5,30.04,NNW,330,11.0,15.0,58,0.00,,---,0.00,VWS V14.01,2013-11-23 14:33:00,
2013-11-23 09:38:00,44.0,29.8,30.04,SSW,206,10.0,19.0,57,0.00,,---,0.00,VWS V14.01,2013-11-23 14:38:00,
2013-11-23 09:43:00,43.9,30.9,30.04,WNW,295,16.0,19.0,60,0.00,,---,0.00,VWS V14.01,2013-11-23 14:43:00,
2013-11-23 09:48:00,44.0,30.6,30.04,NNW,333,8.0,19.0,59,0.00,,---,0.00,VWS V14.01,2013-11-23 14:48:00,
2013-11-23 09:53:00,43.5,30.1,30.04,East,93,10.0,20.0,59,0.00,,---,0.00,VWS V14.01,2013-11-23 14:53:00,
2013-11-23 09:58:00,43.5,30.5,30.04,West,263,10.0,20.0,60,0.00,,---,0.00,VWS V14.01,2013-11-23 14:58:00,
2013-11-23 10:03:00,43.9,30.1,30.04,WNW,295,11.0,16.0,58,0.00,,---,0.00,VWS V14.01,2013-11-23 15:03:00,
2013-11-23 10:08:00,44.6,29.9,30.04,NE,51,13.0,17.0,56,0.00,,---,0.00,VWS V14.01,2013-11-23 15:08:00,
2013-11-23 10:13:00,45.1,29.5,30.04,West,280,12.0,20.0,54,0.00,,---,0.00,VWS V14.01,2013-11-23 15:13:00,
2013-11-23 10:18:00,44.6,29.0,30.04,NNW,341,7.0,20.0,54,0.00,,---,0.00,VWS V14.01,2013-11-23 15:18:00,
2013-11-23 10:23:00,44.4,29.3,30.03,SW,220,11.0,20.0,55,0.00,,---,0.00,VWS V14.01,2013-11-23 15:23:00,
2013-11-23 10:28:00,45.0,29.4,30.03,NW,316,15.0,20.0,54,0.00,,---,0.00,VWS V14.01,2013-11-23 15:28:00,
2013-11-23 10:33:00,45.5,29.8,30.03,West,271,10.0,17.0,54,0.00,,---,0.00,VWS V14.01,2013-11-23 15:33:00,
2013-11-23 10:38:00,45.5,28.9,30.02,NW,311,7.0,18.0,52,0.00,,---,0.00,VWS V14.01,2013-11-23 15:38:00,
2013-11-23 10:43:00,45.4,29.3,30.02,WNW,293,10.0,18.0,53,0.00,,---,0.00,VWS V14.01,2013-11-23 15:43:00,
2013-11-23 10:48:00,45.6,29.0,30.02,SSW,202,3.0,18.0,52,0.00,,---,0.00,VWS V14.01,2013-11-23 15:48:00,
2013-11-23 10:53:00,45.7,29.1,30.01,WNW,300,9.0,18.0,52,0.00,,---,0.00,VWS V14.01,2013-11-23 15:53:00,
2013-11-23 10:58:00,45.6,27.6,30.01,WNW,300,7.0,18.0,49,0.00,,---,0.00,VWS V14.01,2013-11-23 15:58:00,
2013-11-23 11:03:00,45.7,28.1,30.01,WNW,285,12.0,18.0,50,0.00,,---,0.00,VWS V14.01,2013-11-23 16:03:00,
2013-11-23 11:08:00,45.6,28.5,30.01,WNW,291,11.0,18.0,51,0.00,,---,0.00,VWS V14.01,2013-11-23 16:08:00,
2013-11-23 11:13:00,45.5,27.5,30.01,WSW,241,14.0,18.0,49,0.00,,---,0.00,VWS V14.01,2013-11-23 16:13:00,
2013-11-23 11:18:00,45.5,27.5,30.01,NW,319,5.0,18.0,49,0.00,,---,0.00,VWS V14.01,2013-11-23 16:18:00,
2013-11-23 11:23:00,45.7,28.6,30.01,NW,308,8.0,18.0,51,0.00,,---,0.00,VWS V14.01,2013-11-23 16:23:00,
2013-11-23 11:28:00,46.4,29.3,30.01,NW,305,9.0,18.0,51,0.00,,---,0.00,VWS V14.01,2013-11-23 16:28:00,
2013-11-23 11:33:00,47.1,28.4,30.01,West,271,11.0,16.0,48,0.00,,---,0.00,VWS V14.01,2013-11-23 16:33:00,
2013-11-23 11:38:00,46.9,28.2,30.00,WNW,295,11.0,19.0,48,0.00,,---,0.00,VWS V14.01,2013-11-23 16:38:00,
2013-11-23 11:43:00,46.9,27.7,30.00,West,269,10.0,19.0,47,0.00,,---,0.00,VWS V14.01,2013-11-23 16:43:00,
2013-11-23 11:48:00,47.0,27.3,30.00,West,259,9.0,19.0,46,0.00,,---,0.00,VWS V14.01,2013-11-23 16:48:00,
2013-11-23 11:53:00,47.4,26.6,29.99,WNW,283,9.0,19.0,44,0.00,,---,0.00,VWS V14.01,2013-11-23 16:53:00,
2013-11-23 11:58:00,47.5,25.6,29.99,NW,321,12.0,19.0,42,0.00,,---,0.00,VWS V14.01,2013-11-23 16:58:00,
2013-11-23 12:03:00,47.6,25.1,29.99,West,281,8.0,13.0,41,0.00,,---,0.00,VWS V14.01,2013-11-23 17:03:00,
2013-11-23 12:08:00,48.0,26.6,29.99,ENE,76,5.0,14.0,43,0.00,,---,0.00,VWS V14.01,2013-11-23 17:08:00,
2013-11-23 12:13:00,48.3,29.0,29.99,West,280,10.0,15.0,47,0.00,,---,0.00,VWS V14.01,2013-11-23 17:13:00,
2013-11-23 12:18:00,48.3,29.5,29.99,NW,311,9.0,16.0,48,0.00,,---,0.00,VWS V14.01,2013-11-23 17:18:00,
2013-11-23 12:23:00,48.0,27.7,29.98,NW,313,7.0,19.0,45,0.00,,---,0.00,VWS V14.01,2013-11-23 17:23:00,
2013-11-23 12:28:00,47.8,26.4,29.98,NNW,329,10.0,19.0,43,0.00,,---,0.00,VWS V14.01,2013-11-23 17:28:00,
2013-11-23 12:33:00,47.5,27.8,29.98,SW,216,6.0,24.0,46,0.00,,---,0.00,VWS V14.01,2013-11-23 17:33:00,
2013-11-23 12:38:00,47.2,28.0,29.98,SW,221,10.0,24.0,47,0.00,,---,0.00,VWS V14.01,2013-11-23 17:38:00,
2013-11-23 12:43:00,47.1,28.4,29.98,WNW,283,15.0,24.0,48,0.00,,---,0.00,VWS V14.01,2013-11-23 17:43:00,
2013-11-23 12:48:00,47.0,27.3,29.97,NNE,13,13.0,24.0,46,0.00,,---,0.00,VWS V14.01,2013-11-23 17:48:00,
2013-11-23 12:53:00,46.9,26.7,29.97,WNW,288,17.0,24.0,45,0.00,,---,0.00,VWS V14.01,2013-11-23 17:53:00,
2013-11-23 12:58:00,46.9,26.7,29.98,NW,307,6.0,24.0,45,0.00,,---,0.00,VWS V14.01,2013-11-23 17:58:00,
2013-11-23 13:03:00,47.2,27.5,29.98,West,278,10.0,12.0,46,0.00,,---,0.00,VWS V14.01,2013-11-23 18:03:00,
2013-11-23 13:08:00,47.2,26.4,29.98,WSW,238,9.0,17.0,44,0.00,,---,0.00,VWS V14.01,2013-11-23 18:08:00,
2013-11-23 13:13:00,47.3,25.4,29.97,ESE,105,4.0,17.0,42,0.00,,---,0.00,VWS V14.01,2013-11-23 18:13:00,
2013-11-23 13:18:00,47.4,25.5,29.97,WNW,293,9.0,18.0,42,0.00,,---,0.00,VWS V14.01,2013-11-23 18:18:00,
2013-11-23 13:23:00,47.4,24.9,29.96,WNW,288,12.0,18.0,41,0.00,,---,0.00,VWS V14.01,2013-11-23 18:23:00,
2013-11-23 13:28:00,47.4,26.0,29.96,West,269,7.0,18.0,43,0.00,,---,0.00,VWS V14.01,2013-11-23 18:28:00,
2013-11-23 13:33:00,47.4,25.5,29.96,West,272,14.0,14.0,42,0.00,,---,0.00,VWS V14.01,2013-11-23 18:33:00,
2013-11-23 13:38:00,47.3,23.6,29.96,NW,321,7.0,16.0,39,0.00,,---,0.00,VWS V14.01,2013-11-23 18:38:00,
2013-11-23 13:43:00,47.3,24.2,29.95,WNW,283,8.0,17.0,40,0.00,,---,0.00,VWS V14.01,2013-11-23 18:43:00,
2013-11-23 13:48:00,47.3,24.2,29.95,NW,314,9.0,17.0,40,0.00,,---,0.00,VWS V14.01,2013-11-23 18:48:00,
2013-11-23 13:53:00,47.3,23.6,29.96,WSW,254,8.0,17.0,39,0.00,,---,0.00,VWS V14.01,2013-11-23 18:53:00,
2013-11-23 13:58:00,47.3,23.6,29.96,NW,320,7.0,17.0,39,0.00,,---,0.00,VWS V14.01,2013-11-23 18:58:00,
2013-11-23 14:03:00,47.2,22.9,29.96,WSW,253,7.0,13.0,38,0.00,,---,0.00,VWS V14.01,2013-11-23 19:03:00,
2013-11-23 14:08:00,47.1,24.6,29.96,WNW,297,9.0,18.0,41,0.00,,---,0.00,VWS V14.01,2013-11-23 19:08:00,
2013-11-23 14:13:00,47.2,24.1,29.95,WSW,255,12.0,18.0,40,0.00,,---,0.00,VWS V14.01,2013-11-23 19:13:00,
2013-11-23 14:18:00,47.1,25.2,29.95,WNW,283,5.0,18.0,42,0.00,,---,0.00,VWS V14.01,2013-11-23 19:18:00,
2013-11-23 14:23:00,47.1,25.2,29.95,NW,310,6.0,18.0,42,0.00,,---,0.00,VWS V14.01,2013-11-23 19:23:00,
2013-11-23 14:28:00,46.9,23.3,29.95,WNW,302,11.0,18.0,39,0.00,,---,0.00,VWS V14.01,2013-11-23 19:28:00,
2013-11-23 14:33:00,46.7,23.7,29.95,NNE,12,12.0,15.0,40,0.00,,---,0.00,VWS V14.01,2013-11-23 19:33:00,
2013-11-23 14:38:00,46.5,22.9,29.95,WNW,303,9.0,16.0,39,0.00,,---,0.00,VWS V14.01,2013-11-23 19:38:00,
2013-11-23 14:43:00,46.5,22.3,29.95,WSW,256,8.0,16.0,38,0.00,,---,0.00,VWS V14.01,2013-11-23 19:43:00,
2013-11-23 14:48:00,46.4,22.2,29.95,West,262,11.0,17.0,38,0.00,,---,0.00,VWS V14.01,2013-11-23 19:48:00,
2013-11-23 14:53:00,46.1,21.9,29.95,WNW,293,13.0,17.0,38,0.00,,---,0.00,VWS V14.01,2013-11-23 19:53:00,
2013-11-23 14:58:00,46.1,23.1,29.95,WNW,303,4.0,18.0,40,0.00,,---,0.00,VWS V14.01,2013-11-23 19:58:00,
2013-11-23 15:04:00,46.1,22.5,29.95,NE,45,12.0,16.0,39,0.00,,---,0.00,VWS V14.01,2013-11-23 20:04:00,
2013-11-23 15:09:00,45.9,23.0,29.96,NW,314,11.0,16.0,40,0.00,,---,0.00,VWS V14.01,2013-11-23 20:09:00,
2013-11-23 15:14:00,45.8,22.9,29.96,North,1,7.0,16.0,40,0.00,,---,0.00,VWS V14.01,2013-11-23 20:14:00,
2013-11-23 15:19:00,45.8,24.0,29.96,West,274,4.0,16.0,42,0.00,,---,0.00,VWS V14.01,2013-11-23 20:19:00,
2013-11-23 15:24:00,45.7,23.9,29.96,WNW,295,5.0,16.0,42,0.00,,---,0.00,VWS V14.01,2013-11-23 20:24:00,
2013-11-23 15:29:00,45.7,23.9,29.96,WNW,302,3.0,16.0,42,0.00,,---,0.00,VWS V14.01,2013-11-23 20:29:00,
2013-11-23 15:34:00,45.6,25.5,29.95,WNW,292,7.0,12.0,45,0.00,,---,0.00,VWS V14.01,2013-11-23 20:34:00,
2013-11-23 15:39:00,45.4,24.8,29.95,WNW,288,11.0,14.0,44,0.00,,---,0.00,VWS V14.01,2013-11-23 20:39:00,
2013-11-23 15:44:00,45.2,25.7,29.96,West,266,11.0,18.0,46,0.00,,---,0.00,VWS V14.01,2013-11-23 20:44:00,
2013-11-23 15:49:00,45.1,26.1,29.96,WNW,301,7.0,18.0,47,0.00,,---,0.00,VWS V14.01,2013-11-23 20:49:00,
2013-11-23 15:54:00,45.1,25.6,29.96,NW,308,8.0,18.0,46,0.00,,---,0.00,VWS V14.01,2013-11-23 20:54:00,
2013-11-23 15:59:00,45.1,26.1,29.96,NW,305,10.0,18.0,47,0.00,,---,0.00,VWS V14.01,2013-11-23 20:59:00,
2013-11-23 16:04:00,45.0,23.9,29.96,NNW,330,5.0,16.0,43,0.00,,---,0.00,VWS V14.01,2013-11-23 21:04:00,
2013-11-23 16:09:00,44.9,24.3,29.96,WNW,285,9.0,16.0,44,0.00,,---,0.00,VWS V14.01,2013-11-23 21:09:00,
2013-11-23 16:14:00,44.8,25.8,29.96,West,266,6.0,16.0,47,0.00,,---,0.00,VWS V14.01,2013-11-23 21:14:00,
2013-11-23 16:19:00,44.7,25.2,29.96,WNW,289,6.0,16.0,46,0.00,,---,0.00,VWS V14.01,2013-11-23 21:19:00,
2013-11-23 16:24:00,44.6,25.6,29.96,WNW,292,9.0,16.0,47,0.00,,---,0.00,VWS V14.01,2013-11-23 21:24:00,
2013-11-23 16:29:00,44.5,26.5,29.96,West,262,8.0,16.0,49,0.00,,---,0.00,VWS V14.01,2013-11-23 21:29:00,
2013-11-23 16:34:00,44.2,26.8,29.96,WSW,241,6.0,12.0,50,0.00,,---,0.00,VWS V14.01,2013-11-23 21:34:00,
2013-11-23 16:39:00,44.1,27.1,29.96,West,265,9.0,12.0,51,0.00,,---,0.00,VWS V14.01,2013-11-23 21:39:00,
2013-11-23 16:44:00,43.9,27.4,29.97,WNW,283,9.0,16.0,52,0.00,,---,0.00,VWS V14.01,2013-11-23 21:44:00,
2013-11-23 16:49:00,43.8,26.9,29.97,WNW,297,9.0,18.0,51,0.00,,---,0.00,VWS V14.01,2013-11-23 21:49:00,
2013-11-23 16:54:00,43.7,26.3,29.98,West,261,10.0,18.0,50,0.00,,---,0.00,VWS V14.01,2013-11-23 21:54:00,
2013-11-23 16:59:00,43.6,26.7,29.97,West,271,12.0,18.0,51,0.00,,---,0.00,VWS V14.01,2013-11-23 21:59:00,
2013-11-23 17:04:00,43.5,25.6,29.97,SW,227,9.0,20.0,49,0.00,,---,0.00,VWS V14.01,2013-11-23 22:04:00,
2013-11-23 17:09:00,43.4,27.0,29.98,West,264,9.0,20.0,52,0.00,,---,0.00,VWS V14.01,2013-11-23 22:09:00,
2013-11-23 17:14:00,43.2,25.8,29.98,West,267,12.0,20.0,50,0.00,,---,0.00,VWS V14.01,2013-11-23 22:14:00,
2013-11-23 17:19:00,43.2,25.8,29.98,WSW,240,10.0,20.0,50,0.00,,---,0.00,VWS V14.01,2013-11-23 22:19:00,
2013-11-23 17:24:00,43.1,27.1,29.98,WNW,290,8.0,20.0,53,0.00,,---,0.00,VWS V14.01,2013-11-23 22:24:00,
2013-11-23 17:29:00,43.0,26.1,29.98,West,278,5.0,20.0,51,0.00,,---,0.00,VWS V14.01,2013-11-23 22:29:00,
2013-11-23 17:34:00,42.9,27.0,29.98,WNW,286,9.0,14.0,53,0.00,,---,0.00,VWS V14.01,2013-11-23 22:34:00,
2013-11-23 17:39:00,42.7,27.2,29.98,NW,317,7.0,14.0,54,0.00,,---,0.00,VWS V14.01,2013-11-23 22:39:00,
2013-11-23 17:44:00,42.7,27.2,29.98,West,272,9.0,14.0,54,0.00,,---,0.00,VWS V14.01,2013-11-23 22:44:00,
2013-11-23 17:49:00,42.6,27.1,29.98,West,274,8.0,14.0,54,0.00,,---,0.00,VWS V14.01,2013-11-23 22:49:00,
2013-11-23 17:54:00,42.6,28.0,29.98,West,267,4.0,14.0,56,0.00,,---,0.00,VWS V14.01,2013-11-23 22:54:00,
2013-11-23 17:59:00,42.5,27.5,29.98,NW,315,6.0,14.0,55,0.00,,---,0.00,VWS V14.01,2013-11-23 22:59:00,
2013-11-23 18:05:00,42.5,28.4,29.98,WNW,292,7.0,10.0,57,0.00,,---,0.00,VWS V14.01,2013-11-23 23:05:00,
2013-11-23 18:09:00,42.5,28.4,29.97,West,276,7.0,11.0,57,0.00,,---,0.00,VWS V14.01,2013-11-23 23:09:00,
2013-11-23 18:14:00,42.4,28.3,29.98,WSW,244,10.0,13.0,57,0.00,,---,0.00,VWS V14.01,2013-11-23 23:14:00,
2013-11-23 18:19:00,42.4,27.8,29.98,West,271,5.0,13.0,56,0.00,,---,0.00,VWS V14.01,2013-11-23 23:19:00,
2013-11-23 18:24:00,42.4,27.8,29.98,WSW,240,9.0,13.0,56,0.00,,---,0.00,VWS V14.01,2013-11-23 23:24:00,
2013-11-23 18:29:00,42.4,28.3,29.97,SW,227,7.0,14.0,57,0.00,,---,0.00,VWS V14.01,2013-11-23 23:29:00,
2013-11-23 18:34:00,42.4,28.3,29.98,WSW,254,16.0,16.0,57,0.00,,---,0.00,VWS V14.01,2013-11-23 23:34:00,
2013-11-23 18:39:00,42.4,26.5,29.98,West,265,14.0,18.0,53,0.00,,---,0.00,VWS V14.01,2013-11-23 23:39:00,
2013-11-23 18:44:00,42.4,26.0,29.98,West,281,14.0,18.0,52,0.00,,---,0.00,VWS V14.01,2013-11-23 23:44:00,
2013-11-23 18:49:00,42.4,25.1,29.97,NW,304,17.0,18.0,50,0.00,,---,0.00,VWS V14.01,2013-11-23 23:49:00,
2013-11-23 18:54:00,42.3,24.0,29.97,WNW,283,14.0,18.0,48,0.00,,---,0.00,VWS V14.01,2013-11-23 23:54:00,
2013-11-23 18:59:00,42.3,24.5,29.97,WNW,293,14.0,18.0,49,0.00,,---,0.00,VWS V14.01,2013-11-23 23:59:00,
2013-11-23 19:04:00,42.2,24.4,29.98,WNW,286,12.0,18.0,49,0.00,,---,0.00,VWS V14.01,2013-11-24 00:04:00,
2013-11-23 19:09:00,42.2,24.4,29.98,West,278,8.0,18.0,49,0.00,,---,0.00,VWS V14.01,2013-11-24 00:09:00,
2013-11-23 19:14:00,42.2,23.9,29.97,West,264,15.0,20.0,48,0.00,,---,0.00,VWS V14.01,2013-11-24 00:14:00,
2013-11-23 19:19:00,42.2,23.9,29.97,West,264,13.0,20.0,48,0.00,,---,0.00,VWS V14.01,2013-11-24 00:19:00,
2013-11-23 19:24:00,42.1,25.3,29.98,West,268,10.0,20.0,51,0.00,,---,0.00,VWS V14.01,2013-11-24 00:24:00,
2013-11-23 19:29:00,41.9,24.6,29.98,WNW,288,10.0,20.0,50,0.00,,---,0.00,VWS V14.01,2013-11-24 00:29:00,
2013-11-23 19:34:00,41.9,24.1,29.98,SSE,163,5.0,17.0,49,0.00,,---,0.00,VWS V14.01,2013-11-24 00:34:00,
2013-11-23 19:39:00,41.8,24.5,29.98,West,271,14.0,18.0,50,0.00,,---,0.00,VWS V14.01,2013-11-24 00:39:00,
2013-11-23 19:44:00,41.7,24.5,29.98,West,273,9.0,18.0,50,0.00,,---,0.00,VWS V14.01,2013-11-24 00:44:00,
2013-11-23 19:49:00,41.6,24.4,29.98,WNW,288,7.0,18.0,50,0.00,,---,0.00,VWS V14.01,2013-11-24 00:49:00,
2013-11-23 19:54:00,41.5,24.7,29.98,WNW,283,8.0,18.0,51,0.00,,---,0.00,VWS V14.01,2013-11-24 00:54:00,
2013-11-23 19:59:00,41.5,24.7,29.98,WSW,257,7.0,18.0,51,0.00,,---,0.00,VWS V14.01,2013-11-24 00:59:00,
2013-11-23 20:04:00,41.4,25.1,29.98,West,266,4.0,12.0,52,0.00,,---,0.00,VWS V14.01,2013-11-24 01:04:00,
2013-11-23 20:09:00,41.4,25.1,29.98,WSW,249,15.0,19.0,52,0.00,,---,0.00,VWS V14.01,2013-11-24 01:09:00,
2013-11-23 20:14:00,41.5,24.7,29.98,WNW,293,9.0,19.0,51,0.00,,---,0.00,VWS V14.01,2013-11-24 01:14:00,
2013-11-23 20:19:00,41.5,24.7,29.98,NW,304,7.0,19.0,51,0.00,,---,0.00,VWS V14.01,2013-11-24 01:19:00,
2013-11-23 20:24:00,41.5,25.2,29.98,NW,316,9.0,19.0,52,0.00,,---,0.00,VWS V14.01,2013-11-24 01:24:00,
2013-11-23 20:29:00,41.4,23.7,29.98,West,269,11.0,20.0,49,0.00,,---,0.00,VWS V14.01,2013-11-24 01:29:00,
2013-11-23 20:34:00,41.6,22.9,29.98,West,277,16.0,23.0,47,0.00,,---,0.00,VWS V14.01,2013-11-24 01:34:00,
2013-11-23 20:39:00,41.6,23.4,29.98,WNW,290,9.0,23.0,48,0.00,,---,0.00,VWS V14.01,2013-11-24 01:39:00,
2013-11-23 20:45:00,41.5,23.8,29.98,West,266,6.0,26.0,49,0.00,,---,0.00,VWS V14.01,2013-11-24 01:45:00,
2013-11-23 20:50:00,41.2,23.5,29.99,WNW,295,11.0,26.0,49,0.00,,---,0.00,VWS V14.01,2013-11-24 01:50:00,
2013-11-23 20:55:00,41.1,23.9,29.98,WNW,286,11.0,26.0,50,0.00,,---,0.00,VWS V14.01,2013-11-24 01:55:00,
2013-11-23 20:59:00,41.1,24.4,29.98,WNW,288,19.0,26.0,51,0.00,,---,0.00,VWS V14.01,2013-11-24 01:59:00,
2013-11-23 21:04:00,41.1,24.8,29.99,SW,235,18.0,21.0,52,0.00,,---,0.00,VWS V14.01,2013-11-24 02:04:00,
2013-11-23 21:10:00,41.0,23.3,29.99,WNW,297,19.0,24.0,49,0.00,,---,0.00,VWS V14.01,2013-11-24 02:10:00,
2013-11-23 21:15:00,40.9,24.2,29.99,West,272,23.0,28.0,51,0.00,,---,0.00,VWS V14.01,2013-11-24 02:15:00,
2013-11-23 21:20:00,40.8,25.5,30.00,NW,311,18.0,29.0,54,0.00,,---,0.00,VWS V14.01,2013-11-24 02:20:00,
2013-11-23 21:25:00,40.5,23.8,30.00,WSW,256,27.0,29.0,51,0.00,,---,0.00,VWS V14.01,2013-11-24 02:25:00,
2013-11-23 21:30:00,40.2,24.9,30.00,NE,56,14.0,29.0,54,0.00,,---,0.00,VWS V14.01,2013-11-24 02:30:00,
2013-11-23 21:35:00,39.9,23.3,30.00,West,277,28.0,28.0,51,0.00,,---,0.00,VWS V14.01,2013-11-24 02:35:00,
2013-11-23 21:40:00,39.7,22.1,30.00,West,276,26.0,30.0,49,0.00,,---,0.00,VWS V14.01,2013-11-24 02:40:00,
2013-11-23 21:45:00,39.6,22.0,30.00,West,278,18.0,30.0,49,0.00,,---,0.00,VWS V14.01,2013-11-24 02:45:00,
2013-11-23 21:50:00,39.5,21.9,30.00,SW,236,24.0,30.0,49,0.00,,---,0.00,VWS V14.01,2013-11-24 02:50:00,
2013-11-23 21:55:00,39.2,21.7,30.01,West,281,26.0,36.0,49,0.00,,---,0.00,VWS V14.01,2013-11-24 02:55:00,
2013-11-23 22:00:00,39.1,21.1,30.01,NW,308,26.0,36.0,48,0.00,,---,0.00,VWS V14.01,2013-11-24 03:00:00,
2013-11-23 22:05:00,38.7,22.1,30.01,WNW,285,14.0,23.0,51,0.00,,---,0.00,VWS V14.01,2013-11-24 03:05:00,
2013-11-23 22:10:00,38.5,21.5,30.01,WNW,292,17.0,25.0,50,0.00,,---,0.00,VWS V14.01,2013-11-24 03:10:00,
2013-11-23 22:15:00,38.3,20.8,30.01,WNW,298,17.0,25.0,49,0.00,,---,0.00,VWS V14.01,2013-11-24 03:15:00,
2013-11-23 22:20:00,38.1,22.0,30.01,NNW,330,21.0,26.0,52,0.00,,---,0.00,VWS V14.01,2013-11-24 03:20:00,
2013-11-23 22:25:00,38.0,22.0,30.01,NW,319,27.0,29.0,52,0.00,,---,0.00,VWS V14.01,2013-11-24 03:25:00,
2013-11-23 22:30:00,37.9,22.3,30.02,ENE,58,27.0,33.0,53,0.00,,---,0.00,VWS V14.01,2013-11-24 03:30:00,
2013-11-23 22:35:00,37.6,20.7,30.02,WNW,290,17.0,27.0,50,0.00,,---,0.00,VWS V14.01,2013-11-24 03:35:00,
2013-11-23 22:40:00,37.3,20.9,30.02,WNW,289,13.0,27.0,51,0.00,,---,0.00,VWS V14.01,2013-11-24 03:40:00,
2013-11-23 22:45:00,37.0,19.6,30.02,ENE,72,14.0,28.0,49,0.00,,---,0.00,VWS V14.01,2013-11-24 03:45:00,
2013-11-23 22:50:00,36.9,20.0,30.02,North,5,17.0,28.0,50,0.00,,---,0.00,VWS V14.01,2013-11-24 03:50:00,
2013-11-23 22:55:00,36.7,19.8,30.02,NNW,328,10.0,29.0,50,0.00,,---,0.00,VWS V14.01,2013-11-24 03:55:00,
2013-11-23 23:00:00,36.7,20.8,30.02,West,267,11.0,29.0,52,0.00,,---,0.00,VWS V14.01,2013-11-24 04:00:00,
2013-11-23 23:05:00,36.6,20.2,30.02,WNW,283,22.0,22.0,51,0.00,,---,0.00,VWS V14.01,2013-11-24 04:05:00,
2013-11-23 23:10:00,36.3,18.0,30.02,NNE,27,9.0,31.0,47,0.00,,---,0.00,VWS V14.01,2013-11-24 04:10:00,
2013-11-23 23:15:00,36.2,19.4,30.02,West,275,22.0,31.0,50,0.00,,---,0.00,VWS V14.01,2013-11-24 04:15:00,
2013-11-23 23:20:00,36.0,17.2,30.02,NW,313,24.0,31.0,46,0.00,,---,0.00,VWS V14.01,2013-11-24 04:20:00,
2013-11-23 23:25:00,35.9,19.1,30.02,NW,306,18.0,31.0,50,0.00,,---,0.00,VWS V14.01,2013-11-24 04:25:00,
2013-11-23 23:30:00,35.7,17.5,30.02,SW,236,17.0,31.0,47,0.00,,---,0.00,VWS V14.01,2013-11-24 04:30:00,
2013-11-23 23:35:00,35.6,18.8,30.02,WNW,293,13.0,34.0,50,0.00,,---,0.00,VWS V14.01,2013-11-24 04:35:00,
2013-11-23 23:40:00,35.5,17.8,30.02,NW,323,20.0,34.0,48,0.00,,---,0.00,VWS V14.01,2013-11-24 04:40:00,
2013-11-23 23:45:00,35.4,18.1,30.02,NW,306,15.0,34.0,49,0.00,,---,0.00,VWS V14.01,2013-11-24 04:45:00,
2013-11-23 23:50:00,35.2,18.9,30.02,NNE,20,23.0,37.0,51,0.00,,---,0.00,VWS V14.01,2013-11-24 04:50:00,
2013-11-23 23:55:00,35.0,18.2,30.02,West,278,16.0,37.0,50,0.00,,---,0.00,VWS V14.01,2013-11-24 04:55:00,